Hourly Data Report for April 24, 2021

OTTAWA INTL A
ONTARIO
Current Station Operator: NAVCAN

45°19'00.000" N
75°40'00.000" W
114.90 m
6106001
71628
YOW

Download Data

Hourly Data (April 2021)
Hourly Data Report for April 24, 2021
TIME
LST
Temp Definition
°C
Dew Point Definition
°C
Rel Hum Definition
%
Precip. Amount Definition
mm

Wind Dir Definition
10's deg

Wind Spd Definition
km/h
Visibility Definition
km
Stn Press Definition
kPa
Hmdx Definition


Wind Chill Definition


Weather Definition


00:00 8.8 -1.6 48   25 17 24.1 99.53     LegendNANA
01:00 8.0 -1.9 50   25 14 24.1 99.50     Clear
02:00 6.3 -2.3 54   25 11 24.1 99.49     LegendNANA
03:00 6.1 -2.2 55   22 13 24.1 99.54     LegendNANA
04:00 5.5 -2.2 58   21 12 24.1 99.59     Mainly Clear
05:00 4.5 -2.0 62   21 10 24.1 99.62     LegendNANA
06:00 6.1 -1.0 60   22 16 24.1 99.69     LegendNANA
07:00 8.3 -0.6 53   23 16 24.1 99.78     Mostly Cloudy
08:00 11.9 -0.4 42   28 18 24.1 99.78     LegendNANA
09:00 13.6 0.0 39   29 18 24.1 99.79     LegendNANA
10:00 16.5 0.5 34   28 19 24.1 99.79     Clear
11:00 18.4 0.9 31   27 15 24.1 99.75     LegendNANA
12:00 18.8 0.5 29   31 17 24.1 99.66     LegendNANA
13:00 18.3 -1.2 26   28 24 24.1 99.63     Mostly Cloudy
14:00 18.4 -2.1 25   25 23 24.1 99.59     LegendNANA
15:00 17.9 -2.0 26   22 22 24.1 99.58     LegendNANA
16:00 17.6 -2.1 26   23 22 24.1 99.53     Mostly Cloudy
17:00 17.7 -1.5 27   22 26 24.1 99.52     LegendNANA
18:00 16.4 -1.1 30   22 20 24.1 99.52     LegendNANA
19:00 14.8 -0.2 35   22 16 24.1 99.52     Mostly Cloudy
20:00 12.6 -0.1 42   20 10 24.1 99.53     LegendNANA
21:00 11.2 -0.3 45   19 8 24.1 99.55     LegendNANA
22:00 9.7 -0.7 48   19 7 24.1 99.50     Mainly Clear
23:00 9.3 -0.9 49   18 11 24.1 99.47     LegendNANA

Notes on Data Quality.

Legend

  • E = Estimated
  • M = Missing
  • NA = Not Available*
  • [empty] = Indicates an unobserved value
Date modified: